Terminal Aerodrome Forecast
Issued by NWS

Home | Current Version | Previous Version | Text Only | Print | Product List | Glossary On
Versions: 1 2 3 4 5 6 7 8 9 10 11 12 13 14 15 16 17 18 19 20 21 22 23 24 25 26 27 28 29 30 31 32 33 34 35 36 37 38 39 40 41 42 43 44 45 46 47 48 49 50
000
FTUS45 KBOU 291322 AAA
TAFAPA
TAF AMD
KAPA 291322Z 2913/3012 36010KT 5SM -RA BR OVC003
     FM291400 02012KT 6SM BR VCSH BKN004 OVC012
     FM291430 03014KT P6SM BKN030 OVC060
     FM291900 02012G22KT P6SM SCT040 BKN100
     FM300100 06008KT P6SM SCT060 SCT100
     FM300400 12007KT P6SM FEW120 SCT220
     FM300700 18010KT P6SM FEW140 BKN220=

USA.gov is the U.S. government's official web portal to all federal, state and local government web resources and services.